STARLINK-11236 [DTC]

Last updated on Mon Oct 14 2024 00:02:03 GMT+0000 (Coordinated Universal Time)

1 61062U 24164N 24287.50658721 .00003412 00000+0 32962-4 0 9994 2 61062 53.1569 316.2309 0001005 105.4019 254.7110 15.69742796 4972
UTC large
Height (km)
Speed (km/s)
/
Latitude / Longitude
Inclination (degrees)
Orbital Period (minutes)
Azimuth
Elevation
Range (km)
Doppler Factor

Next 0 passes for location: London (51.5072 / 0.1276)

Sorry there are no passes over London.